x

Portland 12 Nm Southeast Of Portland,me (44007) Wave Buoy

12:50 - Thu 30th Jun 2016 All times are EDT. -4 hours from GMT.

  • Sig Wave height 2.6ft
  • Swell Direction
  • Peak Period 8s
  • Average Period 6s
  • Wind
    9mph, 11mph gusts
  • Sea Temp 61°f
  • Aire Temp 64°f
  • Sea Pressure 1014.1mb
  • Portland 12 Nm Southeast Of Portland,me
  • Portland 12 Nm Southeast Of Portland,me

More Historic Weather Station data

Upgrade to MSW Pro to gain access to the past 30 days of data for over 8000 Wavebouys and Weather Stations around the globe.

Join Pro

Comparision Forecast

View Surf forecast
   
jue 06/30 12:50 2.5ft 8s 6s 9 11 mph 1014.1mb 61f 64f
11:50 2.5ft 9s 7s 7 9 mph 1014.1mb 60f 63f
10:50 2.5ft 7s 6s 7 9 mph 1014mb 60f 61f
9:50 2.5ft 8s 6s 7
mph
1013.9mb 59f 61f
8:50 3ft 8s 6s 7
mph
1013.7mb 59f 61f
7:50 2.5ft 8s 6s 2 4 mph 1013.2mb 58f 60f
6:50 3ft 8s 6s 4 7 mph 1012.6mb 58f 60f
5:50 3ft 8s 6s 4 7 mph 1012.3mb 58f 59f
4:50 3ft 8s 6s 2 4 mph 1011.8mb 58f 57f
3:50 2.5ft 8s 6s  -  2 mph 1011.6mb 58f 57f
2:50 2.5ft 7s 6s  -  mph 1011.6mb 58f 58f
1:50 2.5ft 8s 5s 2
mph
1011.6mb 58f 58f
12:50 2.5ft 8s 5s 2 4 mph 1011.5mb 58f 60f
mié 06/29 11:50 2.5ft 8s 6s 2 4 mph 1011.6mb 58f 61f
10:50 2.5ft 6s 5s 4 7 mph 1011.5mb 58f 60f
9:50 3ft 6s 6s 4 7 mph 1011.1mb 58f 61f
8:50 2.5ft 7s 5s 7
mph
1010.8mb 58f 60f
7:50 3ft 7s 6s 11 13 mph 1010.7mb 59f 60f
6:50 3ft 7s 5s  -  2 mph 1010.9mb 58f 65f
5:50 2.5ft 7s 5s 9 11 mph 1009.7mb 58f 62f
4:50 2.5ft 7s 6s 11 13 mph 1009.4mb 58f 63f
3:50 2.5ft 8s 6s 7 11 mph 1010.5mb 58f 62f
2:50 2.5ft 8s 5s 9 13 mph 1011mb 58f 61f
1:50 2ft 8s 5s  -  2 mph 1010.8mb 58f 61f
12:50 2.5ft 8s 5s 4 7 mph 1011.2mb 58f 60f
11:50 2ft 8s 5s 4
mph
1011.8mb 58f 60f
10:50 2.5ft 4s 4s 2 4 mph 1011.8mb 57f 60f
9:50 2ft 6s 4s 7 11 mph 1011.9mb 56f 61f
8:50 2.5ft 8s 4s 7 9 mph 1011.6mb 57f 60f
7:50 2.5ft 6s 4s 9 11 mph 1011.5mb 57f 60f
6:50 2.5ft 6s 4s 13 16 mph 1011.2mb 56f 61f
5:50 2ft 6s 5s 11 13 mph 1011.3mb 56f 60f
3:50 2ft 8s 5s 4
mph
1011.7mb 56f 60f
2:50 2ft 8s 4s 2
mph
1012.2mb 57f 60f
1:50 2ft 4s 4s 2 4 mph 1012.6mb 57f 60f
12:50 2ft 4s 4s 4
mph
1012.9mb 57f 60f
mar 06/28 11:50 2.5ft 4s 4s 7 9 mph 1013mb 57f 60f
10:50 2.5ft 4s 4s 11 13 mph 1013.2mb 57f 61f
9:50 2.5ft 4s 4s 11 13 mph 1013.3mb 58f 61f
8:50 2.5ft 4s 4s 13 16 mph 1013.1mb 57f 61f
7:50 2.5ft 4s 4s 13 16 mph 1013.3mb 57f 62f
6:50 2.5ft 5s 4s 13 16 mph 1012.7mb 57f 62f
5:50 2.5ft 8s 4s 11 13 mph 1012.9mb 56f 62f
4:50 2.5ft 5s 5s 11 13 mph 1013.3mb 57f 61f
3:50 2.5ft 4s 4s 9 11 mph 1013.7mb 57f 60f
2:50 2.5ft 4s 4s 9
mph
1014.3mb 56f 60f
1:50 2.5ft 5s 4s 7
mph
1014.7mb 56f 59f
12:50 2.5ft 5s 4s 4 7 mph 1015.4mb 56f 59f
11:50 3ft 5s 5s 9 11 mph 1015.6mb 56f 60f
10:50 3ft 5s 4s 11 13 mph 1015.4mb 55f 59f
9:50 3ft 5s 4s 16 18 mph 1015.6mb 56f 60f
8:50 2.5ft 5s 4s 13 16 mph 1015.5mb 56f 60f
7:50 3ft 5s 4s 16 18 mph 1015.1mb 55f 60f
6:50 3.5ft 5s 5s 18 20 mph 1014.7mb 56f 60f
5:50 3.5ft 6s 5s 20 22 mph 1014mb 56f 60f
4:50 4ft 6s 5s 18 20 mph 1014.3mb 56f 60f
3:50 4ft 6s 5s 18 20 mph 1014.4mb 56f 60f
2:50 4.5ft 6s 5s 18 20 mph 1014.3mb 56f 61f
1:50 5ft 6s 5s 20 25 mph 1014.1mb 56f 61f
12:50 5ft 5s 5s 22 27 mph 1014.3mb 56f 62f
lun 06/27 11:50 5ft 5s 5s 22 27 mph 1014.6mb 56f 62f
10:50 5ft 6s 5s 22 27 mph 1014.6mb 56f 63f
9:50 5ft 6s 5s 20 25 mph 1014.7mb 56f 62f
8:50 5ft 6s 5s 20 22 mph 1014.2mb 56f 62f
7:50 5ft 6s 5s 20 25 mph 1013.9mb 56f 63f
6:50 5ft 5s 5s 22 27 mph 1013.7mb 57f 64f
5:50 4.5ft 6s 5s 20 27 mph 1013.8mb 57f 64f
4:50 4.5ft 8s 5s 22 27 mph 1013.9mb 57f 65f
3:50 4.5ft 7s 5s 20 25 mph 1014.3mb 57f 65f
2:50 4.5ft 8s 5s 20 25 mph 1014.6mb 57f 64f
1:50 3.5ft 8s 5s 20 22 mph 1015.1mb 58f 63f
12:50 3.5ft 5s 5s 18 20 mph 1015.8mb 58f 63f
11:50 3.5ft 5s 5s 18 20 mph 1016.3mb 57f 62f
10:50 3.5ft 8s 5s 13 16 mph 1016.8mb 57f 61f
9:50 3.5ft 5s 5s 16 18 mph 1017mb 58f 61f
8:50 3.5ft 5s 4s 16 18 mph 1017.3mb 58f 61f
7:50 3ft 5s 4s 16 18 mph 1017.4mb 58f 61f
6:50 3ft 8s 4s 18 22 mph 1017.4mb 58f 62f
5:50 3ft 5s 5s 16 18 mph 1017.5mb 59f 61f
4:50 2.5ft 5s 5s 13 16 mph 1017.3mb 59f 61f
3:50 2.5ft 7s 5s 11 13 mph 1017.1mb 60f 61f
2:50 2.5ft 7s 5s 9 11 mph 1017.3mb 60f 62f
1:50 2.5ft 8s 5s 7 9 mph 1017.8mb 60f 62f
12:50 2.5ft 8s 5s 7 9 mph 1018.2mb 60f 62f
dom 06/26 11:50 2.5ft 8s 5s 7
mph
1018.6mb 60f 62f
10:50 2ft 8s 5s 7 9 mph 1019mb 60f 63f
9:50 2ft 4s 4s 7 9 mph 1019.4mb 59f 62f
8:50 2ft 7s 5s 2 4 mph 1019.6mb 60f 62f
7:50 2ft 8s 4s 4
mph
1020mb 60f 63f
6:50 2ft 6s 4s 4 7 mph 1020.1mb 61f 63f